Location: Unspecified
(34.4950°S, 58.5160°W)
Time: 02:18:28
(UTC+00:00)

Daily predictions for brighter satellites

Satellite Brightness Start Highest point End
(mag) Time Altitude Azimuth Time Altitude Azimuth Time Altitude Azimuth
Milstar 3 Cent rocket 3.9 00:09:57 10° NW 00:12:00 24° NW 00:12:00 24° NW
USA 215 4.0 00:13:54 42° S 00:15:06 46° SW 00:21:16 10° WNW
CENTAUR R/B 3.8 00:42:21 10° NW 00:49:45 48° W 00:49:45 48° W
USA 59 Rocket 4.2 04:46:31 13° SSE 04:46:31 13° SSE 04:47:24 10° SSE
USA 59 Rocket 3.8 06:32:03 17° S 06:32:03 17° S 06:35:57 10° SSE
USA 215 4.5 06:54:29 10° ENE 06:58:39 36° E 06:58:39 36° E
SL-16 R/B 4.5 07:32:14 10° NNE 07:36:17 20° E 07:40:22 10° SE
Atlas Centaur 2 3.3 07:45:00 50° N 07:45:00 50° N 07:51:02 10° ENE
CZ-3 Stage 3 4.3 06:42:14 10° W 07:45:32 76° N 07:51:15 10° ENE
ATLAS 5 CENTAUR R/B 3.7 07:50:31 32° S 07:50:31 32° S 07:54:41 10° SSE
Cosmos 1655 Rocket 4.2 07:47:08 51° NNE 07:48:37 67° E 07:54:55 10° SSE
ATLAS 3B R/B 3.3 07:46:35 33° NNE 07:48:54 46° ENE 07:54:51 10° SE
Cosmos 2263 Rocket 2.2 08:03:13 69° SSE 08:03:52 78° ESE 08:09:33 10° NNE
USA 229 DEB 4.0 08:05:01 38° NNW 08:08:41 88° ENE 08:16:27 10° SSE
USA 229 4.0 08:04:58 37° NNW 08:08:45 87° ENE 08:16:31 10° SSE
IRS-1D 3.9 08:10:05 10° NNE 08:15:21 67° ESE 08:20:42 10° S
USA 281 3.7 08:14:29 10° S 08:19:47 39° SW 08:19:47 39° SW
Cosmos 1486 Rocket 3.9 08:23:07 54° NNW 08:24:21 83° WSW 08:29:45 10° SSE
CENTAUR R/B 3.6 08:20:35 10° S 08:24:55 27° SE 08:28:47 10° ENE
Cosmos 1980 Rocket 3.8 08:28:50 19° SSW 08:28:50 19° SSW 08:31:00 10° S
Cosmos 2369 4.0 08:31:21 46° WSW 08:31:21 46° WSW 08:36:38 10° S
Cosmos 2315 Rocket 4.1 08:26:51 10° SSW 08:32:55 51° W 08:38:58 10° NNW
BlueWalker 3 1.8 08:36:06 74° E 08:36:06 74° E 08:39:27 10° NE
Cosmos 773 Rocket 4.4 08:32:55 10° S 08:38:14 66° ESE 08:43:27 10° NNE
Cosmos 1777 Rocket 3.8 08:36:02 31° NNW 08:38:34 72° WSW 08:43:47 10° SSE
USA 215 3.6 08:37:25 10° NNE 08:43:38 45° NW 08:46:02 33° W
Cosmos 2333 Rocket 2.5 08:38:14 10° NNW 08:43:55 71° ENE 08:49:43 10° SSE
Cosmos 1844 Rocket 4.4 08:40:32 10° S 08:45:37 32° ESE 08:50:39 10° NE
Cosmos 2227 Rocket 4.0 08:53:22 15° NW 08:53:22 15° NW 08:54:34 10° NNW
GOES 2 Rocket 4.1 08:50:22 26° NNW 08:51:54 34° N 08:56:06 10° ENE
Cosmos 2360 Rocket 3.2 08:48:02 10° N 08:53:27 49° ENE 08:58:55 10° SSE
Sich 1 2.9 08:51:11 10° N 08:55:21 86° E 08:59:38 10° S
Lacrosse 5 rocket 1.1 08:55:30 49° WSW 08:55:50 52° SW 08:59:29 10° SSE
Okean 2 3.7 08:55:12 10° S 08:59:07 63° E 09:02:58 10° NNE
Cosmos 1328 Rocket 4.0 08:59:19 14° SSW 09:02:40 36° W 09:06:36 10° NNW
Cosmos 2278 3.6 08:57:24 10° NNW 09:03:06 82° WSW 09:08:51 10° SSE
H-2A ROCKET BODY 4.5 08:41:28 10° WNW 09:04:20 46° N 09:10:32 10° ENE
Cosmos 2322 Rocket 2.5 09:01:05 10° NNW 09:06:44 73° ENE 09:12:29 10° SSE
Tiangong -0.8 09:06:50 24° NW 09:06:52 24° NW 09:09:30 10° NNE
SL-16 R/B 2.5 09:01:02 10° S 09:07:15 72° WSW 09:13:27 10° NNW
SMAP 3.6 09:11:14 10° NNE 09:15:51 61° ESE 09:20:31 10° S
Cosmos 2082 3.8 09:11:06 10° SSW 09:16:43 54° WNW 09:22:16 10° N
Aureole 1 Rocket 4.5 09:13:00 10° N 09:19:49 79° ENE 09:27:17 10° SSE
SL-16 R/B 2.5 09:14:31 10° NW 09:19:56 46° WSW 09:25:25 10° S
Cosmos 1408 Rocket 3.4 09:20:13 10° N 09:24:30 75° W 09:28:53 10° S
Cosmos 2219 Rocket 3.1 09:19:06 10° N 09:24:37 55° ENE 09:30:11 10° SSE
Cosmos 1745 Rocket 3.9 09:18:39 10° N 09:24:47 76° W 09:31:04 10° S
ARIANE 6 FM1 Upper Stage 3.8 09:23:14 19° W 09:25:13 26° SW 09:28:55 10° S
Meteor 2-10 Rocket 3.9 09:20:25 10° NNW 09:25:51 50° WSW 09:31:31 10° S
Atlas Centaur 2 3.9 09:26:54 13° WNW 09:32:06 25° NNW 09:37:26 10° NNE
CORIOLIS 4.2 09:31:18 10° N 09:36:45 76° WNW 09:42:16 10° SSW
MOS 1 Rocket 3.7 09:33:20 10° NNW 09:37:24 36° W 09:41:25 10° SSW
Cosmos 2219 4.1 09:32:38 10° SW 09:37:29 28° WNW 09:42:19 10° NNW
ATLAS 3B R/B 3.4 09:34:11 10° WNW 09:39:38 28° SW 09:44:56 10° S
Cosmos 2333 4.2 09:36:52 10° NNW 09:42:38 76° WSW 09:48:29 10° SSE
Cosmos 1844 3.7 09:41:02 10° SSW 09:46:39 83° WNW 09:52:12 10° NNE
Cosmos 2263 Rocket 3.9 09:45:24 10° W 09:46:57 11° W 09:48:30 10° WNW
Cosmos 1898 Rocket 3.8 09:42:45 10° N 09:47:58 77° ENE 09:53:17 10° SSE
UNK 3.8 09:44:04 10° S 09:48:37 56° WSW 09:53:08 10° NNW
OAO 3 Rocket 4.3 09:48:04 10° NW 09:52:36 42° NNE 09:57:04 10° E
Cosmos 1937 Rocket 4.0 09:51:55 10° N 09:56:59 66° ENE 10:02:07 10° SSE
